Regional Weather Roundup
Issued by NWS Newport/Morehead, NC

Current Version | Previous Version | Graphics & Text | Print | Product List | Glossary On
Versions: 1 2 3 4 5 6 7 8 9 10 11 12 13 14 15 16 17 18 19 20 21 22 23 24 25 26 27 28 29 30 31 32 33 34 35 36 37 38 39 40 41 42 43 44 45 46 47 48 49 50
000 ASUS42 KMHX 020327 RWRMHX WEATHER ROUNDUP FOR EASTERN NORTH CAROLINA NATIONAL WEATHER SERVICE NEWPORT/MOREHEAD CITY NC 1000 PM EST SUN MAR 01 2015 NOTE: "FAIR" INDICATES FEW OR NO CLOUDS BELOW 12,000 FEET WITH NO SIGNIFICANT WEATHER AND/OR OBSTRUCTIONS TO VISIBILITY NCZ015>017-031-032-045>047-102-103-020400- NORTH COAST CITY SKY/WX TMP DP RH WIND PRES REMARKS EDENTON CLOUDY 36 35 97 SE5 30.28F ELIZABETH CITY LGT RAIN 36 36 100 S3 30.30F KITTY HAWK DRIZZLE 37 37 100 SW3 30.30F MANTEO CLOUDY 37 36 93 W6 30.33S $$ NCZ045>047-081-094-103-104-020400- CENTRAL COAST CITY SKY/WX TMP DP RH WIND PRES REMARKS FRISCO CLOUDY 42 41 96 NW8 30.32F SWANQUARTER N/A 39 N/A N/A NW1 30.30S $$ NCZ095-097-098-100-101-020400- SOUTHERN COAST CITY SKY/WX TMP DP RH WIND PRES REMARKS BEAUFORT LGT RAIN 45 45 100 NW12 30.35R CEDAR ISLAND N/A 41 N/A N/A NW15 30.39S JACKSONVILLE CLOUDY 41 39 93 N3 30.35F PINEY ISLAND N/A N/A N/A N/A MISG 30.35S WILMINGTON CLOUDY 42 41 96 NW3 30.36F $$ NCZ011>013-027>030-043-044-078>080-089-090>093-098-020400- COASTAL PLAIN CITY SKY/WX TMP DP RH WIND PRES REMARKS AHOSKIE CLOUDY 32 31 98 CALM 30.31F FOG CLINTON CLOUDY 38 38 100 CALM 30.36R FOG ELIZABETHTOWN CLOUDY 39 39 100 CALM 30.34F FOG GOLDSBORO CLOUDY 37 37 100 CALM 30.32S GREENVILLE CLOUDY 36 36 100 W3 30.33S FOG HAVELOCK LGT RAIN 42 40 92 NW3 30.36F FOG KENANSVILLE CLOUDY 38 38 99 CALM 30.35F FOG KINSTON CLOUDY 38 38 98 SW5 30.34S FOG NEW BERN CLOUDY 40 38 93 S5 30.34F RICHLANDS CLOUDY 39 37 93 CALM 30.34F ROCKY MOUNT CLOUDY 35 34 96 SW5 30.33F WASHINGTON CLOUDY 37 36 97 SW5 30.32S WHITEVILLE CLOUDY 40 39 96 CALM 30.35F FOG $$ AMZ130-135-150-152-154-156-158-170-250-252-270-ANZ085-086-088-633-658-670-020400- MARINE OBSERVATIONS STATION/POSITION TIME TEMP WIND PRES WAVE SWELL AIR SEA DIR/SP/G HT/PER HT/PER (UTC) (F) (DEG/KT/KT) (MB) (FT/S) (FT/S) CHESAPEAKE LIGHT 0300 32 230/ 4/ 4 1025.9 64 E VA BEACH 0250 47 59 270/ 8/ 10 1024.9 4/ 6 3/ 6 DUCK 0212 36 34 220/ 6/ 6 1025.9 2 E DUCK 0311 N/A 3/ 6 10 NE DUCK 0222 36 N/A 4/ 5 OREGON INLET 0212 39 41 320/ 9/ 12 1027.0 HATTERAS CG 0206 42 41 330/ 6/ 9 1027.5 CAPE LOOKOUT 0300 48 310/ 6/ 7 1027.1 BEAUFORT LAB 0300 45 43 340/ 9/ 11 1026.8 27 SE WRIGHTSVLE NOT AVBL 5 SE WRIGHTSVLE NOT AVBL 225 S CAPE HAT 0250 70 72 160/ 16/ 17 1029.3 7/ 8 5/ 8 41 SE CHARLESTON 0250 54 68 360/ 12/ 14 1028.0 6/ 9 5/ 9 $$

USA.gov is the U.S. government's official web portal to all federal, state and local government web resources and services.